Track SPACE STATION now! 10-day predictions The ISS Notification Tool HD Live streaming from Space Station SPACE STATION is classified as:
1 25544U 98067A 22220.55122723 .00004662 00000-0 88788-4 0 9996 2 25544 51.6445 77.1862 0005231 97.2571 342.7527 15.50269549353300